Weather Service Report


689 
ASUS41 KBTV 260410
RWRBTV
VERMONT REGIONAL WEATHER ROUNDUP
NATIONAL WEATHER SERVICE BURLINGTON VT
1200 AM EDT MON JUN 26 2017

NOTE: "FAIR" INDICATES FEW OR NO CLOUDS BELOW 12,000 FEET WITH NO 
SIGNIFICANT WEATHER AND/OR OBSTRUCTIONS TO VISIBILITY.

* THESE REPORTS ARE NOT UNDER NWS QUALITY CONTROL AND/OR DO NOT
  REPORT WEATHER SUCH AS PRECIPITATION AND FOG.

VTZ001>019-260500-
_____VERMONT_____

  
CITY           SKY/WX    TMP DP  RH WIND       PRES   REMARKS
BURLINGTON     PTCLDY    60  54  80 S8        29.90S                  
MONTPELIER     PTCLDY    56  53  90 N5        29.95F                  
MORRISVILLE    PTCLDY    52  51  97 CALM      29.92S                  
ST. JOHNSBURY*   N/A     55  55 100 MISG      29.89F                  
LYNDONVILLE*   FOG       52  52  99 CALM      29.93S VSB<1/4          
MIDDLEBURY*    FAIR      59  49  68 CALM      29.93R                  
RUTLAND*       CLOUDY    60  48  64 VRB5      29.95F                  
SPRINGFIELD    CLOUDY    60  47  61 CALM      29.94S                  
HIGHGATE*      FAIR      55  54  97 CALM      29.88F                  
NEWPORT*       FAIR      52  51  96 SW7       29.90F                  
BENNINGTON     CLOUDY    58  54  86 CALM      29.98F                  
SUTTON*          N/A     52 N/A N/A MISG        N/A                   

_____LAKE CHAMPLAIN_____

  
CITY           SKY/WX    TMP DP  RH WIND       PRES   REMARKS

$$

NYZ007-026>031-035-052-083-087-260500-
_____NORTHERN NEW YORK_____

  
CITY           SKY/WX    TMP DP  RH WIND       PRES   REMARKS
PLATTSBURGH    CLOUDY    59  52  77 W3        29.90R                  
SARANAC LAKE   CLOUDY    54  47  77 SW6       29.93S                  
MASSENA        PTCLDY    54  52  93 SW5       29.92S                  
OGDENSBURG*    FAIR      54  53  95 SW3       29.92S                  
POTSDAM*       MOCLDY    54  54 100 SW3       29.92F                  
WATERTOWN      CLEAR     53  53 100 CALM      29.95S                  
FT DRUM        PTCLDY    54  52  93 SW7       29.94S                  
ALBANY         CLOUDY    60  56  86 CALM      29.99R                  
GLENS FALLS    PTCLDY    58  51  78 W7        29.95S                  

$$
NHZ002-005-011-260500-
_____NEW HAMPSHIRE_____

  
CITY           SKY/WX    TMP DP  RH WIND       PRES   REMARKS
LEBANON        PTCLDY    61  50  67 S8        29.92R                  
KEENE          MOCLDY    64  52  64 S3        29.97R                  
MT WASHINGTON  PTCLDY    40  38  95 W37         N/A  WCI  27          
PLYMOUTH       FAIR      56  53  90 CALM      29.91S                  
WHITEFIELD     MOCLDY    50  47  89 CALM      29.91F                  

$$

_____REGIONAL QUEBEC LOCATIONS_____

  
CITY           SKY/WX    TMP DP  RH WIND       PRES   REMARKS
MONTREAL       MOCLDY    59  54  82 W12       29.87S                  
QUEBEC CITY    MOCLDY    57  55  94 W7        29.82F                  
SHERBROOKE     PTCLDY    54  52  94 S3        29.86F                  

_____REGIONAL ONTARIO LOCATIONS_____

  
CITY           SKY/WX    TMP DP  RH WIND       PRES   REMARKS
OTTAWA         PTCLDY    55  55 100 W7        29.90F                  

______KEY______
VSB  - VISIBILITY IN MILES
WCI  - WIND CHILL INDEX
HX   - HEAT INDEX
$$
NNNN
  

Return to Home page


Western Regional Climate Center, wrcc@dri.edu